Location: Saginaw
(43.4195°N, 83.9508°W)
Time: 07:22:59
(UTC-04:00)

Daily predictions for brighter satellites

Satellite Brightness Start Highest point End
(mag) Time Altitude Azimuth Time Altitude Azimuth Time Altitude Azimuth
Spot 2 Rocket 4.3 20:50:51 10° SE 20:55:24 34° ENE 20:59:57 10° N
Cosmos 2322 4.3 20:50:50 10° SW 20:56:26 65° WNW 21:02:07 10° NNE
Cosmos 1328 Rocket 4.3 20:53:09 10° SSE 20:57:03 32° E 21:01:00 10° NNE
Cosmos 2154 Rocket 4.0 20:52:26 10° S 20:58:36 64° E 21:04:45 10° NNE
ATLAS CENTAUR R/B 1.8 20:55:25 10° S 20:58:40 31° ESE 21:02:03 10° NE
Meteor 2-15 4.5 20:54:29 10° N 21:00:39 79° E 21:06:45 10° SSE
Cosmos 2184 Rocket 4.4 20:55:52 10° SSW 21:02:00 70° W 21:08:10 10° N
Timation 1 Rocket 4.4 20:56:45 10° NNW 21:02:45 86° ENE 21:08:44 10° SSE
SL-16 R/B 3.9 21:02:55 10° ESE 21:04:22 11° E 21:05:48 10° E
NOSS 2-1 (E) 3.3 21:04:17 10° SW 21:07:55 85° NW 21:12:03 10° NE
Resurs 01 Rocket 1.9 21:03:46 10° SSE 21:08:04 52° ENE 21:12:24 10° N
Cosmos 1470 Rocket 4.3 21:04:50 10° N 21:08:51 34° ENE 21:12:54 10° SE
SJ-6B 3.5 21:07:55 10° S 21:11:53 57° W 21:15:48 10° NNW
BREEZE-M DEB (TANK) 4.0 21:01:53 10° W 21:12:33 53° NNW 21:15:49 10° ENE
Meteor 2-21 4.5 21:06:32 10° S 21:12:39 83° E 21:18:52 10° N
Meteor 2-3 Rocket 3.8 21:07:12 10° N 21:12:45 60° ENE 21:18:19 10° SSE
Cosmos 1939 Rocket 2.7 21:14:42 10° SSE 21:18:34 77° ENE 21:22:29 10° N
Cosmos 2341 Rocket 4.0 21:15:40 10° S 21:21:56 66° E 21:28:13 10° NNE
NOSS 3-3 (A) 3.9 21:15:59 10° SSW 21:21:59 79° SE 21:28:38 10° NE
NOSS 3-3 (C) 3.9 21:16:05 10° SSW 21:22:06 78° ESE 21:28:44 10° NE
NOSS 0 Rocket 4.0 21:17:19 10° S 21:23:16 53° ESE 21:29:17 10° NE
Cosmos 962 Rocket 4.4 21:17:41 10° S 21:23:45 70° E 21:29:53 10° NNE
Cosmos 2360 Rocket 4.4 21:23:22 10° WSW 21:28:14 29° NW 21:33:07 10° N
Aureole 2 4.1 21:26:02 10° S 21:28:59 51° ESE 21:31:52 10° NNE
USA 267 4.5 21:25:45 10° E 21:29:34 16° ESE 21:33:21 10° SSE
Cosmos 1980 3.8 21:24:32 10° S 21:30:00 51° ESE 21:35:30 10° NE
Cosmos 1666 Rocket 4.2 21:27:04 10° NNW 21:31:29 58° W 21:35:50 10° S
Cosmos 1295 Rocket 4.5 21:25:16 10° S 21:31:35 75° E 21:37:53 10° N
ERS-1 Rocket 4.4 21:30:08 15° ESE 21:32:53 22° ENE 21:36:42 10° NNE
Cosmos 1408 2.9 21:32:11 10° N 21:35:45 46° E 21:38:11 18° SSE
Cosmos 220 Rocket 4.0 21:32:22 10° NNW 21:36:44 82° WSW 21:40:44 12° SSE
Cosmos 1933 Rocket 3.6 21:33:13 10° N 21:37:33 57° E 21:41:04 15° SSE
Cosmos 2366 rocket 4.4 21:32:30 10° SSE 21:38:18 43° E 21:44:11 10° NNE
H-2A R/B 3.1 21:36:33 17° ESE 21:39:16 27° ENE 21:43:25 10° N
ERS-2 3.8 21:37:25 10° SSW 21:40:45 33° W 21:44:08 10° NNW
Cosmos 2333 Rocket 2.3 21:35:07 10° SSW 21:40:47 84° WNW 21:46:29 10° NNE
Resurs 1-3 3.9 21:37:05 10° S 21:41:26 67° WSW 21:45:49 10° NNW
Sich 1 4.4 21:37:27 10° NNW 21:41:27 39° W 21:45:25 10° SSW
Cosmos 1371 Rocket 4.4 21:37:14 10° S 21:42:09 40° ESE 21:47:08 10° NE
Cosmos 1151 Rocket 2.9 21:37:58 10° S 21:42:10 64° E 21:46:25 10° NNE
Cosmos 1455 2.5 21:38:47 10° SSW 21:42:35 68° W 21:46:27 10° N
Cosmos 1844 Rocket 4.0 21:37:52 10° NW 21:43:06 38° WSW 21:48:16 10° S
USA 186 3.3 21:41:33 10° SSW 21:43:26 23° W 21:45:22 10° NW
Meteor 1-27 4.3 21:38:05 10° S 21:43:50 84° W 21:49:31 10° N
COSMOS 2428 3.9 21:40:36 10° SW 21:46:06 47° WNW 21:51:39 10° NNE
SL-8 Rocket 4.0 21:41:06 10° S 21:47:19 68° E 21:53:33 10° NNE
Cosmos 1892 4.3 21:45:37 10° NNW 21:49:11 35° W 21:52:43 10° SSW
YAOGAN 6 4.2 21:50:14 10° SSW 21:53:31 33° W 21:56:52 10° NNW
MetOp-A 4.5 21:51:21 22° SE 21:54:36 49° ENE 21:59:45 10° N
Cosmos 2219 Rocket 3.0 21:49:50 10° SW 21:55:23 56° WNW 22:00:57 10° NNE
Cosmos 2237 Rocket 2.1 21:51:43 10° SSW 21:57:19 79° ESE 22:02:58 10° NNE
Cosmos 1869 Rocket 4.4 21:55:58 10° NNE 21:59:52 31° ENE 22:00:54 27° E
Genesis I 4.1 21:58:45 10° NW 22:02:39 45° WSW 22:05:02 21° S
Cosmos 2056 Rocket 3.7 21:58:23 10° S 22:03:36 50° ESE 22:08:48 10° NNE
Cosmos 2278 Rocket 2.3 22:00:14 10° NNW 22:05:55 75° WSW 22:09:51 21° SSE
ATLAS 5 CENTAUR R/B 4.4 22:04:33 10° N 22:08:04 16° NNE 22:11:49 10° ENE
Cosmos 1862 4.0 22:05:30 10° N 22:09:14 35° ENE 22:09:45 33° E
Helios 1A 4.0 22:08:42 28° E 22:09:26 29° ENE 22:13:05 10° N
Terra 3.7 22:09:24 14° ENE 22:10:13 15° ENE 22:12:52 10° NNE
Cosmos 2098 Rocket 2.9 22:07:13 17° S 22:10:46 69° E 22:14:33 10° NNE
CZ-3B R/B 3.7 22:11:04 10° NW 22:11:54 27° WNW 22:11:54 27° WNW
Cosmos 405 Rocket 3.6 22:15:04 32° ENE 22:15:04 32° ENE 22:18:10 10° NNE
Cosmos 1515 Rocket 4.4 22:11:31 10° SSW 22:15:52 52° WNW 22:20:15 10° N
Cosmos 405 2.9 22:13:44 10° N 22:17:12 59° ENE 22:17:29 57° ESE
Cosmos 864 Rocket 4.4 22:12:40 10° S 22:18:47 84° E 22:24:58 10° N
Cosmos 1624 Rocket 3.8 22:15:24 10° SSW 22:20:33 74° ESE 22:25:45 10° NNE
Cosmos 2228 Rocket 4.1 22:16:46 10° SSW 22:20:58 45° WNW 22:25:14 10° N
Cosmos 1190 Rocket 4.0 22:17:38 10° NNW 22:22:57 73° ENE 22:24:55 39° SE
ATLAS 2A CENTAUR R/B 4.5 22:11:30 10° SW 22:24:50 27° S 22:27:45 24° SSE
Cosmos 1140 Rocket 4.1 22:21:04 10° N 22:25:56 39° ENE 22:27:07 34° E
Lacrosse 5 3.8 22:23:14 10° NNW 22:27:09 22° NNE 22:30:32 12° ENE
Cosmos 1825 3.3 22:24:12 10° NNW 22:27:47 41° W 22:29:46 22° SSW
SPOT 5 3.2 22:28:34 38° E 22:29:09 40° ENE 22:33:20 10° N
ATLAS 2AS CENTAUR R/B 3.9 22:27:29 10° NW 22:34:40 41° WSW 22:39:43 17° S
Cosmos 1954 Rocket 4.3 22:30:43 10° N 22:35:47 49° ENE 22:36:48 43° E
ATLAS CENTAUR R/B 3.6 22:34:34 10° W 22:37:39 24° NW 22:40:54 10° NNE
SL-8 R/B 3.8 22:35:47 10° WSW 22:40:35 77° NNW 22:43:31 24° ENE
GEOS 3 Rocket 3.6 22:35:57 10° NE 22:41:14 58° ESE 22:43:44 30° S
Resurs 01 Rocket 4.3 22:42:11 10° SW 22:44:52 16° W 22:47:32 10° NW
SL-16 R/B 2.1 22:43:11 18° SSW 22:47:31 82° ESE 22:53:12 10° NNE
CZ-2C R/B 4.4 22:49:11 21° ENE 22:49:11 21° ENE 22:52:39 10° NNE
ARGOS 3.6 22:48:17 30° SSW 22:50:46 55° W 22:56:03 10° NNW
Cosmos 2344 3.6 22:44:04 10° SSW 22:51:27 56° ESE 22:59:25 10° NE
Cosmos 1000 Rocket 4.5 22:46:35 10° N 22:52:45 66° E 22:54:15 50° SE
MetOp-B 4.5 22:51:06 34° SSW 22:53:17 60° WSW 22:58:36 10° NNW
Cosmos 1943 Rocket 3.9 22:49:28 10° N 22:53:22 19° NE 22:54:37 18° ENE
Cosmos 1933 3.9 22:54:28 47° NE 22:54:28 47° NE 22:57:34 10° NNE
SL-19 R/B 4.3 22:53:15 52° ESE 22:54:18 63° ENE 22:59:50 10° N
Cosmos 1727 Rocket 4.3 22:48:52 10° NNW 22:54:57 61° W 22:58:14 28° SSW
SL-08 RB Rocket 4.2 22:56:34 44° SW 22:57:32 54° W 23:01:56 10° NNW
Cosmos 1821 Rocket 4.0 22:57:37 51° SE 22:59:02 64° E 23:05:16 10° NNE
DMSP B5D2-2 3.9 22:58:26 10° NNE 23:03:43 80° ESE 23:04:25 67° SSE
NOSS 3-4 (A) 3.9 22:58:26 10° NW 23:05:28 72° WSW 23:07:53 45° S
NOSS 3-4 (C) 3.9 22:58:32 10° NW 23:05:35 72° WSW 23:07:59 46° SSE
Cosmos 1420 Rocket 4.2 23:08:01 55° ENE 23:08:01 55° ENE 23:12:36 10° NNE
SPOT 1/Viking Rocket 3.4 23:09:39 72° S 23:10:13 86° WSW 23:15:29 10° NNW
ERS-1 Rocket 3.6 23:10:09 40° SW 23:11:21 48° W 23:16:13 10° NNW
Cosmos 614 Rocket 3.8 23:07:24 10° NNW 23:12:39 82° WSW 23:12:58 77° SSW
USA 267 3.1 23:06:51 10° NE 23:13:22 66° SE 23:19:51 10° SW
Cosmos 407 Rocket 4.3 23:08:39 10° NW 23:13:27 41° WSW 23:14:30 36° SW
Meteor 1-14 Rocket 4.5 23:08:43 10° N 23:14:00 50° ENE 23:14:00 50° ENE
Cosmos 2123 Rocket 4.1 23:09:06 10° N 23:15:19 57° ENE 23:15:50 55° E
Cosmos 2297 4.2 23:12:50 10° NW 23:18:18 49° WSW 23:19:22 44° SW
H-2A R/B 3.1 23:17:10 32° SW 23:18:33 38° W 23:23:10 10° NNW
Cosmos 2369 Rocket 2.8 23:19:46 10° NNW 23:25:10 42° ENE 23:25:18 42° ENE
Helios 1B rocket 3.2 23:21:55 10° N 23:25:09 50° NNW 23:25:09 50° NNW
Landsat 7 4.0 23:29:59 66° WNW 23:29:59 66° WNW 23:34:23 10° NNW
Cosmos 1535 Rocket 4.4 23:29:32 67° S 23:30:29 90° W 23:36:54 10° N
Cosmos 1241 Rocket 4.3 23:30:45 10° NNW 23:37:05 88° ENE 23:37:27 81° SE
Meteor 1-25 Rocket 4.2 23:33:27 10° N 23:38:56 76° NE 23:38:56 76° NE
CZ-2C R/B 3.8 23:36:16 10° NNE 23:39:33 32° NE 23:39:33 32° NE
CZ-4C R/B 2.6 23:44:41 51° NE 23:44:41 51° NE 23:49:12 10° NE
Meteor 1-26 Rocket 4.2 23:43:38 78° NW 23:43:38 78° NW 23:49:01 10° N
Cosmos 1452 Rocket 4.1 23:45:53 50° W 23:46:30 53° WNW 23:51:39 10° NNE
USA 234 3.7 23:45:38 43° ENE 23:47:22 55° NNE 23:53:43 10° NW
Terra 2.4 23:48:17 55° NW 23:48:17 55° NW 23:52:09 10° NNW
RESURS DK-1 4.2 23:43:55 10° NNW 23:46:14 27° N 23:46:14 27° N
Cosmos 1733 Rocket 4.2 23:44:52 10° NNW 23:47:58 42° NW 23:47:58 42° NW
Cosmos 1605 Rocket 3.9 23:49:31 76° ENE 23:49:31 76° ENE 23:55:43 10° N
